| time (UTC) | temp F | wind direction | speed MPH | gust MPH | rain 1hr in | rain 24hr in | rain mn in | humidity % | barometer mb |
| 20260505102139 | 63 | 117 | 2.0 | 6.0 | 0.00 | 0.00 | 0.00 | 81 | 468.0 |
| 20260505101617 | 63 | 117 | 0.0 | 4.0 | 0.00 | 0.00 | 0.00 | 82 | 467.3 |
| 20260505100134 | 63 | 130 | 1.0 | 5.0 | 0.00 | 0.00 | 0.00 | 81 | 467.9 |
| 20260505095135 | 63 | 125 | 2.0 | 6.0 | 0.00 | 0.00 | 0.00 | 80 | 467.9 |
| 20260505094133 | 63 | 121 | 2.0 | 7.0 | 0.00 | 0.00 | 0.00 | 78 | 467.2 |
| 20260505093132 | 63 | 138 | 3.0 | 7.0 | 0.00 | 0.00 | 0.00 | 76 | 468.0 |
| 20260505092615 | 63 | 133 | 2.0 | 7.0 | 0.00 | 0.00 | 0.00 | 75 | 467.9 |
| 20260505091130 | 63 | 142 | 2.0 | 9.0 | 0.00 | 0.00 | 0.00 | 75 | 468.0 |
| 20260505090132 | 63 | 155 | 3.0 | 7.0 | 0.00 | 0.00 | 0.00 | 73 | 468.0 |
| 20260505085614 | 63 | 175 | 2.0 | 6.0 | 0.00 | 0.00 | 0.00 | 73 | 465.5 |
| 20260505084616 | 63 | 171 | 2.0 | 6.0 | 0.00 | 0.00 | 0.00 | 72 | 498.6 |
| 20260505083131 | 63 | 167 | 1.0 | 5.0 | 0.00 | 0.00 | 0.00 | 71 | 468.0 |
| 20260505082602 | 63 | 128 | 3.0 | 9.0 | 0.00 | 0.00 | 0.00 | 71 | 472.1 |
| 20260505081122 | 63 | 155 | 1.0 | 6.0 | 0.00 | 0.00 | 0.00 | 70 | 498.3 |
| 20260505080124 | 63 | 0 | 1.0 | 4.0 | 0.00 | 0.00 | 0.00 | 69 | 465.5 |
| 20260505075118 | 62 | 0 | 2.0 | 5.0 | 0.00 | 0.00 | 0.00 | 68 | 468.0 |
| 20260505074602 | 61 | 71 | 0.0 | 3.0 | 0.00 | 0.00 | 0.00 | 69 | 468.0 |
| 20260505073558 | 61 | 71 | 0.0 | 0.0 | 0.00 | 0.00 | 0.00 | 69 | 447.6 |
| 20260505072112 | 60 | 71 | 0.0 | 0.0 | 0.00 | 0.00 | 0.00 | 70 | 468.0 |
| 20260505071111 | 60 | 71 | 0.0 | 0.0 | 0.00 | 0.00 | 0.00 | 70 | 466.5 |
| 20260505070113 | 59 | 71 | 0.0 | 0.0 | 0.00 | 0.00 | 0.00 | 71 | 468.0 |
| 20260505065106 | 59 | 71 | 0.0 | 0.0 | 0.00 | 0.00 | 0.00 | 71 | 468.0 |
| 20260505064549 | 59 | 71 | 0.0 | 4.0 | 0.00 | 0.00 | 0.00 | 71 | 467.9 |
| 20260505063107 | 59 | 71 | 0.0 | 4.0 | 0.00 | 0.00 | 0.00 | 72 | 468.0 |
| 20260505062103 | 59 | 71 | 0.0 | 0.0 | 0.00 | 0.00 | 0.00 | 73 | 471.1 |
| 20260505061103 | 58 | 71 | 0.0 | 4.0 | 0.00 | 0.00 | 0.00 | 73 | 468.7 |
| 20260505060104 | 58 | 71 | 1.0 | 4.0 | 0.00 | 0.00 | 0.00 | 74 | 468.0 |
| 20260505055104 | 57 | 71 | 1.0 | 4.0 | 0.00 | 0.00 | 0.00 | 75 | 468.0 |
| 20260505054058 | 57 | 71 | 2.0 | 3.0 | 0.00 | 0.00 | 0.00 | 75 | 534.5 |
| 20260505053057 | 57 | 71 | 1.0 | 4.0 | 0.00 | 0.00 | 0.00 | 75 | 468.1 |
| 20260505052058 | 57 | 71 | 2.0 | 5.0 | 0.00 | 0.00 | 0.00 | 75 | 467.9 |
| 20260505051053 | 56 | 71 | 1.0 | 4.0 | 0.00 | 0.00 | 0.00 | 74 | 459.3 |
| 20260505041043 | 55 | 0 | 1.0 | 5.0 | 0.00 | 0.00 | 0.00 | 79 | 782.4 |
| 20260505040041 | 54 | 0 | 1.0 | 3.0 | 0.00 | 0.00 | 0.00 | 80 | 463.5 |
| 20260505035039 | 54 | 0 | 0.0 | 2.0 | 0.00 | 0.00 | 0.00 | 81 | 498.6 |
| 20260505034040 | 53 | 0 | 0.0 | 0.0 | 0.00 | 0.00 | 0.00 | 82 | 468.0 |
| 20260505033032 | 54 | 0 | 0.0 | 0.0 | 0.00 | 0.00 | 0.00 | 80 | 468.4 |
| 20260505032030 | 55 | 0 | 0.0 | 0.0 | 0.00 | 0.00 | 0.00 | 79 | 498.6 |
| 20260505031031 | 55 | 0 | 0.0 | 0.0 | 0.00 | 0.00 | 0.00 | 79 | 468.0 |
| 20260505030030 | 55 | 0 | 0.0 | 0.0 | 0.00 | 0.00 | 0.00 | 79 | 601.6 |
| 20260505025525 | 55 | 0 | 0.0 | 3.0 | 0.00 | 0.00 | 0.00 | 79 | 468.0 |
| 20260505024504 | 54 | 0 | 0.0 | 0.0 | 0.00 | 0.00 | 0.00 | 80 | 465.6 |
| 20260505023026 | 55 | 0 | 0.0 | 3.0 | 0.00 | 0.00 | 0.00 | 80 | 468.1 |
| 20260505022951 | 55 | 0 | 0.0 | 0.0 | 0.00 | 0.00 | 0.00 | 79 | 467.9 |
| 20260505021023 | 55 | 0 | 0.0 | 0.0 | 0.00 | 0.00 | 0.00 | 79 | 467.9 |
| 20260505020023 | 55 | 0 | 0.0 | 0.0 | 0.00 | 0.00 | 0.00 | 79 | 463.2 |
| 20260505015022 | 55 | 0 | 0.0 | 0.0 | 0.00 | 0.00 | 0.00 | 78 | 473.2 |
| 20260505014023 | 56 | 0 | 0.0 | 0.0 | 0.00 | 0.00 | 0.00 | 78 | 468.8 |
| 20260505013021 | 56 | 0 | 0.0 | 0.0 | 0.00 | 0.00 | 0.00 | 77 | 468.0 |
| 20260505012021 | 56 | 0 | 0.0 | 0.0 | 0.00 | 0.00 | 0.00 | 78 | 468.0 |
| 20260505011018 | 56 | 0 | 0.0 | 0.0 | 0.00 | 0.00 | 0.00 | 78 | 468.0 |
| 20260505010014 | 56 | 0 | 0.0 | 0.0 | 0.00 | 0.00 | 0.00 | 77 | 468.0 |
| 20260505005013 | 56 | 0 | 0.0 | 0.0 | 0.00 | 0.00 | 0.00 | 77 | 468.0 |
| 20260505004015 | 56 | 0 | 0.0 | 2.0 | 0.00 | 0.00 | 0.00 | 79 | 465.1 |
| 20260505003011 | 56 | 0 | 0.0 | 3.0 | 0.00 | 0.00 | 0.00 | 80 | 484.0 |
| 20260505002012 | 56 | 0 | 0.0 | 0.0 | 0.00 | 0.00 | 0.00 | 81 | 465.6 |
| 20260505001006 | 56 | 0 | 1.0 | 4.0 | 0.00 | 0.00 | 0.00 | 81 | 499.3 |
| 20260505000009 | 57 | 0 | 1.0 | 3.0 | 0.00 | 0.00 | 0.00 | 81 | 484.3 |
| 20260504235004 | 57 | 0 | 0.0 | 0.0 | 0.00 | 0.00 | 0.00 | 82 | 467.8 |
| 20260504234005 | 57 | 0 | 0.0 | 0.0 | 0.00 | 0.00 | 0.00 | 82 | 483.7 |
| 20260504233003 | 57 | 0 | 1.0 | 5.0 | 0.00 | 0.00 | 0.00 | 82 | 529.0 |
| 20260504232003 | 57 | 94 | 1.0 | 4.0 | 0.00 | 0.00 | 0.00 | 81 | 526.7 |
| 20260504231004 | 58 | 105 | 1.0 | 4.0 | 0.00 | 0.00 | 0.00 | 81 | 484.2 |
| 20260504230449 | 58 | 161 | 0.0 | 0.0 | 0.00 | 0.00 | 0.00 | 80 | 956.9 |
| 20260504225002 | 58 | 161 | 0.0 | 0.0 | 0.00 | 0.00 | 0.00 | 80 | 571.0 |
| 20260504224002 | 58 | 161 | 0.0 | 0.0 | 0.00 | 0.00 | 0.00 | 80 | 462.8 |
| 20260504223002 | 58 | 161 | 0.0 | 1.0 | 0.00 | 0.00 | 0.00 | 79 | 417.7 |
| 20260504222002 | 59 | 161 | 0.0 | 0.0 | 0.00 | 0.00 | 0.00 | 78 | 484.6 |
| 20260504221438 | 59 | 161 | 0.0 | 0.0 | 0.00 | 0.00 | 0.00 | 77 | 441.4 |
| 20260504220001 | 60 | 161 | 0.0 | 0.0 | 0.00 | 0.00 | 0.00 | 76 | 468.2 |
| 20260504214954 | 60 | 161 | 0.0 | 0.0 | 0.00 | 0.00 | 0.00 | 75 | 504.2 |
| 20260504214437 | 61 | 161 | 0.0 | 0.0 | 0.00 | 0.00 | 0.00 | 74 | 457.9 |
| 20260504213439 | 61 | 161 | 0.0 | 0.0 | 0.00 | 0.00 | 0.00 | 73 | 496.8 |
| 20260504211951 | 61 | 161 | 0.0 | 0.0 | 0.00 | 0.00 | 0.00 | 73 | 467.9 |
| 20260504210949 | 61 | 161 | 0.0 | 0.0 | 0.00 | 0.00 | 0.00 | 72 | 432.8 |
| 20260504205950 | 62 | 161 | 0.0 | 0.0 | 0.00 | 0.00 | 0.00 | 71 | 424.8 |
| 20260504204947 | 62 | 161 | 0.0 | 0.0 | 0.00 | 0.00 | 0.00 | 71 | 466.4 |
| 20260504204420 | 62 | 161 | 0.0 | 0.0 | 0.00 | 0.00 | 0.00 | 71 | 463.3 |
| 20260504202945 | 62 | 161 | 0.0 | 0.0 | 0.00 | 0.00 | 0.00 | 70 | 471.7 |
| 20260504201942 | 62 | 161 | 0.0 | 0.0 | 0.00 | 0.00 | 0.00 | 71 | 576.9 |
| 20260504200942 | 62 | 161 | 0.0 | 0.0 | 0.00 | 0.00 | 0.00 | 71 | 918.3 |
| 20260504195942 | 63 | 161 | 0.0 | 0.0 | 0.00 | 0.00 | 0.00 | 71 | 468.0 |
| 20260504195424 | 63 | 161 | 0.0 | 0.0 | 0.00 | 0.00 | 0.00 | 71 | 468.0 |
| 20260504194915 | 63 | 161 | 0.0 | 0.0 | 0.00 | 0.00 | 0.00 | 71 | 468.0 |
| 20260504192939 | 63 | 161 | 0.0 | 0.0 | 0.00 | 0.00 | 0.00 | 72 | 447.4 |
| 20260504191934 | 64 | 161 | 0.0 | 0.0 | 0.00 | 0.00 | 0.00 | 72 | 466.7 |
| 20260504190932 | 64 | 161 | 0.0 | 0.0 | 0.00 | 0.00 | 0.00 | 71 | 446.5 |
| 20260504185933 | 65 | 161 | 0.0 | 0.0 | 0.00 | 0.00 | 0.00 | 69 | 484.4 |
| 20260504184930 | 65 | 161 | 0.0 | 0.0 | 0.00 | 0.00 | 0.00 | 68 | 463.4 |
| 20260504184416 | 66 | 161 | 0.0 | 0.0 | 0.00 | 0.00 | 0.00 | 68 | 469.0 |
| 20260504183911 | 66 | 161 | 0.0 | 0.0 | 0.00 | 0.00 | 0.00 | 67 | 468.4 |
| 20260504182412 | 66 | 161 | 0.0 | 0.0 | 0.00 | 0.00 | 0.00 | 67 | 608.0 |
| 20260504180929 | 66 | 161 | 1.0 | 5.0 | 0.00 | 0.00 | 0.00 | 66 | 634.6 |
| 20260504175926 | 67 | 161 | 2.0 | 7.0 | 0.00 | 0.00 | 0.00 | 65 | 492.5 |
| 20260504175403 | 67 | 162 | 3.0 | 8.0 | 0.00 | 0.00 | 0.00 | 64 | 417.9 |
| 20260504174400 | 68 | 158 | 2.0 | 8.0 | 0.00 | 0.00 | 0.00 | 64 | 440.7 |
| 20260504173352 | 69 | 161 | 2.0 | 6.0 | 0.00 | 0.00 | 0.00 | 64 | 714.7 |
| 20260504172357 | 69 | 145 | 2.0 | 8.0 | 0.00 | 0.00 | 0.00 | 64 | 612.2 |
| 20260504170916 | 68 | 148 | 3.0 | 9.0 | 0.00 | 0.00 | 0.00 | 67 | 468.1 |
| 20260504140858 | 72 | 214 | 7.0 | 13.0 | 0.00 | 0.00 | 0.00 | 53 | 467.2 |